This is the latest recevied weather packets stored in our database for station/object OE9SAU-10. If no packets are shown the sender has not sent any weather packets the latest 10 day(s).
| Time | Temp. | Humidity | Pressure | Rain* | Wind** | Luminosity | Snow |
|---|---|---|---|---|---|---|---|
| 1777500186 | 16.11° C | 42% | 1024 hPa | - | - | - | - |
| 1777499286 | 16.67° C | 41% | 1023.8 hPa | - | - | - | - |
| 1777498386 | 17.22° C | 42% | 1023.7 hPa | - | - | - | - |
| 1777497486 | 17.22° C | 43% | 1023.7 hPa | - | - | - | - |
| 1777496586 | 17.78° C | 43% | 1023.6 hPa | - | - | - | - |
| 1777495686 | 17.78° C | 43% | 1023.5 hPa | - | - | - | - |
| 1777494785 | 18.33° C | 42% | 1023.4 hPa | - | - | - | - |
| 1777493884 | 18.33° C | 43% | 1023.3 hPa | - | - | - | - |
| 1777492984 | 18.89° C | 43% | 1023.1 hPa | - | - | - | - |
| 1777492084 | 18.89° C | 43% | 1023 hPa | - | - | - | - |
| 1777491184 | 19.44° C | 43% | 1022.8 hPa | - | - | - | - |
| 1777490284 | 20° C | 44% | 1022.6 hPa | - | - | - | - |
| 1777489384 | 20° C | 44% | 1022.3 hPa | - | - | - | - |
| 1777488484 | 20° C | 45% | 1022.1 hPa | - | - | - | - |
| 1777487584 | 20.56° C | 45% | 1022 hPa | - | - | - | - |
| 1777486684 | 20.56° C | 44% | 1021.8 hPa | - | - | - | - |
| 1777485784 | 21.11° C | 44% | 1021.7 hPa | - | - | - | - |
| 1777484884 | 21.11° C | 44% | 1021.5 hPa | - | - | - | - |
| 1777483984 | 21.11° C | 44% | 1021.4 hPa | - | - | - | - |
| 1777483084 | 21.11° C | 45% | 1021.4 hPa | - | - | - | - |
| 1777482183 | 21.11° C | 46% | 1021.2 hPa | - | - | - | - |
| 1777481283 | 21.11° C | 45% | 1021.3 hPa | - | - | - | - |
| 1777480383 | 20.56° C | 46% | 1021.3 hPa | - | - | - | - |
| 1777479483 | 20° C | 46% | 1021.2 hPa | - | - | - | - |
| 1777478583 | 21.11° C | 46% | 1021.2 hPa | - | - | - | - |
* Rain since midnight (hover to see other rain measurements)
** Current wind speed in m/s (hover to see current wind gust speed)